Fort Wayne Police Department
Fort Wayne Police Department
Emergencies Call: 911
Non-Emergencies: (260) 427-1222
report drug house

Daily Activity Logs

Activity Log for April 29, 2014 Community Search

Incident Time Nature Address
14F052273 00:01:01 27 RECKLESS DRI 6200 JEFFERSON BLVD W
14F052275 00:03:22 30 TRAFFIC STOP 5700 SMITH ST & PAULDING RD E
14F052277 00:05:50 911 HANG UP 1300 FAYETTE DR
14F052276 00:06:46 14 WARRANT 3500 COLISEUM BLVD W
14F052280 00:20:39 911 HANG UP 2500 WEISSER PARK AVE
14F052279 00:21:15 48 SUSPICIOUS 3400 TIMBERHILL DR & MAYBERRY ST
14F052278 00:22:02 48 SUSPICIOUS 2500 PAULDING RD E & FRUEHAUF DR
14F052283 00:25:32 44LM 100 COUNTRY FOREST DR
14F052281 00:29:16 53 ARMED ROB 8500 BRIDGEWAY DR
14F052282 00:31:15 99 NARCOTICS 00 MAIN ST E
14F052284 00:38:42 129 4100 HESSEN CASSEL RD
14F052285 00:44:55 43 DISTURBANCE 3100 HANNA ST S & DALMAN AVE
14F052286 01:06:02 103 UNWANTED 7500 SOUTHTOWN XING
14F052287 01:19:13 101 OPEN DOOR 3600 COURTWOOD DR
14F052288 01:20:56 113 SHOTS FIRED 2500 TRENTMAN AVE
14F052289 01:23:53 96JO 400 BRACKENRIDGE ST W
14F052290 01:30:58 113 SHOTS FIRED 2400 COLISEUM BLVD S & RAYMOND AVE
14F052292 01:33:15 50 BURGLARY 3900 BOWSER AVE
14F052291 01:35:33 40A AUDIBLE 3600 GOSHEN RD
14F052293 01:44:07 48 SUSPICIOUS 200 WAYNE ST W
14F052294 01:48:53 101 OPEN DOOR 6300 DURANGO DR
14F052295 02:04:51 48 SUSPICIOUS 5000 MADIERA DR
14F052296 02:06:16 66 MENTALLY ILL 400 FAIRMOUNT PL
14F052299 02:15:39 911 HANG UP 7900 SERENITY DR
14F052297 02:18:20 911 HANG UP 1000 HIGH ST
14F052298 02:18:56 30 TRAFFIC STOP 600 JEFFERSON BLVD W & BROADWAY
14F052300 02:21:46 16V PICKUP VID 00 MAIN ST E
14F052301 02:24:19 911 HANG UP 900 LEXINGTON AVE
14F052302 02:25:15 129 9600 TRELLIS CV
14F052303 02:25:44 129 9600 SEA VIEW CV
14F052304 02:29:11 43 DISTURBANCE 2100 THOMPSON AVE
14F052305 02:39:29 65A SUICIDE ATT 10600 WOOD FLOWER CT
14F052306 02:43:15 40A AUDIBLE 1800 INWOOD DR
14F052307 02:52:05 99 NARCOTICS 00 MAIN ST E
14F052308 02:57:49 129 2300 FOREST PARK BLVD
14F052309 03:02:00 63 CONTACT 4200 COLDWATER RD
14F052311 03:10:33 40A AUDIBLE 700 NORTHCREST SHOPPING CTR
14F052310 03:10:52 48 SUSPICIOUS 1700 WAYNE ST E
14F052312 03:11:23 50IP BURG I/P 4100 ANTHONY BLVD S
14F052313 03:17:56 46,96 900 RIDGEWOOD DR
14F052314 03:20:51 46,96 1800 SPY RUN AVE
14F052315 03:33:59 16V PICKUP VID 00 MAIN ST E
14F052316 03:46:04 53 ARMED ROB 1400 CLINTON ST N & FOURTH ST E
14F052317 03:50:24 48,36 1400 CLINTON ST N & FOURTH ST E
14F052318 03:53:23 CONFINED SPACE 600 CREIGHTON AVE E
14F052319 03:55:52 40A AUDIBLE 600 CREIGHTON AVE E
14F052320 03:57:58 48,36 900 BOGGS AVE
14F052321 04:31:08 50,ATTEMPTED 1200 ST JOSEPH BLVD
14F052322 04:49:25 48 SUSPICIOUS 800 STEINMAN DR
14F052323 05:16:31 30 TRAFFIC STOP 1800 JEFFERSON BLVD W
14F052324 05:37:12 30 TRAFFIC STOP 3600 CLINTON ST S & OAKDALE DR E
14F052326 05:38:14 30 TRAFFIC STOP 1200 MAPLECREST RD & LAKE AVE
14F052325 05:39:15 25 PD ACCIDENT 1800 JEFFERSON BLVD W
14F052327 05:45:08 129 5600 GAYWOOD DR
14F052328 05:48:56 51,35 1900 CLINTON ST N
14F052329 06:04:43 911 HANG UP 4800 CHRISTOFER LN
14F052330 06:09:32 40A AUDIBLE 3600 WELLS ST
14F052331 06:10:31 44LM 3800 PLYMOUTH RD
14F052332 06:53:06 00 MAIN ST E
14F052333 06:59:07 51,35 1900 CLINTON ST N
14F052334 07:10:58 51,35 1900 CLINTON ST N
14F052335 07:14:51 1 MEET 800 HIGH ST
14F052336 07:17:42 37 PARKING VIOL 4400 WEISSER PARK AVE
14F052337 07:18:54 25 PD ACCIDENT 5800 LIMA RD & WASHINGTON CENTER R
14F052338 07:27:23 51,35 1900 CLINTON ST N
14F052341 07:29:17 40A AUDIBLE 2100 STRATHMORE ST
14F052339 07:30:54 43 DISTURBANCE 1200 WASHINGTON CENTER RD E
14F052340 07:31:59 51 THEFT 5500 BUELL DR
14F052342 07:41:25 66 72 HOUR 2200 RANDALLIA DR
14F052348 07:46:54 51,35 1300 SINCLAIR ST
14F052343 07:48:13 25 PD ACCIDENT 10600 MAYSVILLE RD & I 469 25 SB O
14F052344 07:49:30 22RC RECOVERY 3600 CALHOUN ST S
14F052345 07:49:32 48 SUSPICIOUS 900 LIBRARY PLAZA
14F052347 07:52:23 25 PD ACCIDENT 4300 CRESCENT AVE & STELLHORN RD
14F052346 07:53:15 40A AUDIBLE 7600 PATRIOT XING
14F052349 08:05:18 33 DISABLED VEH 3900 WASHINGTON BLVD E
14F052350 08:09:45 11C CAGE CAR 400 STATE BLVD E
14F052351 08:23:38 17 MOTOR CHECK 5700 WOODLEA AVE
14F052353 08:24:22 33 DISABLED VEH 31100 I 69 NB
14F052352 08:27:37 96 BATTERY 2500 LAKE AVE
14F052354 08:30:09 48 SUSPICIOUS 2900 GOSHEN RD & COLISEUM BLVD W
14F052355 08:32:53 17 MOTOR CHECK 900 PEMBERTON DR
14F052356 08:35:06 43 DISTURBANCE 3500 WARSAW ST
14F052358 08:38:52 16,97 700 DEWALD ST W
14F052357 08:39:02 30 TRAFFIC STOP 7500 COVINGTON RD & COVINGTON PINE
14F052359 08:41:30 911 HANG UP 1800 COREE DR
14F052360 08:52:20 48,36 1800 INWOOD DR
14F052362 08:55:06 50 BURGLARY 1700 WELLS ST
14F052361 08:56:26 63 CONTACT 9000 MAYSVILLE RD & TRIER RD
14F052364 09:12:06 911 HANG UP 3300 COLISEUM BLVD W
14F052363 09:12:22 911 HANG UP 400 RUDISILL BLVD E
14F052366 09:13:42 40A AUDIBLE 7400 CLINGMANS TRL
14F052365 09:13:59 16V PICKUP VID 00 MAIN ST E
14F052367 09:14:43 34 TRAFF HAZARD 31200 I 69 NB
14F052368 09:16:54 48 SUSPICIOUS 200 MAIN ST E & BARR ST S
14F052369 09:19:01 17 MOTOR CHECK 5800 COVINGTON RD
14F052370 09:22:22 65T SUICIDE THR 8000 MYSTIC DR
14F052371 09:24:31 22RC RECOVERY 3600 CALHOUN ST S
14F052372 09:26:07 129 5500 CENTERHURST TERR
14F052373 09:26:13 46,96 300 RACQUET DR W
14F052374 09:27:21 40A AUDIBLE 1600 MELROSE AVE
14F052379 09:28:43 17 MOTOR CHECK 2800 QUEEN ST
14F052375 09:30:44 34 TRAFF HAZARD 5500 LIMA RD & I 69 SB
14F052376 09:30:44 50IP BURG I/P 1000 WOODVIEW BLVD
14F052378 09:33:29 25HS HIT SKIP 5300 LAKE AVE
14F052377 09:35:34 38 LOST/STOLEN 2800 FREEMAN ST
14F052380 09:39:48 103 UNWANTED 3000 GOSHEN RD
14F052381 09:43:07 40A AUDIBLE 6200 LIMA RD
14F052382 09:43:47 35 PARKED VEHIC 4400 SPATZ AVE
14F052383 09:44:50 129 100 FLEMING AVE E
14F052384 09:45:04 129 100 FLEMING AVE E
14F052385 09:49:29 911 HANG UP 4700 BOWSER AVE
14F052386 09:52:04 48 SUSPICIOUS 4600 ILLINOIS RD & THOMAS RD S
14F052387 09:52:44 25 PD ACCIDENT 900 CLINTON ST S & WASHINGTON BLVD
14F052388 09:55:33 16,97 3900 OLD MILL RD & RUDISILL BLVD W
14F052389 09:59:46 44LM 3100 ROBINWOOD DR
14F052390 10:09:29 129 5300 KYLE RD
14F052391 10:11:17 HARASSMENT 4700 LILLIE ST
14F052392 10:13:48 51,35 2500 OLIVER ST
14F052393 10:16:06 911 HANG UP 1000 WELLS ST & FAIRMOUNT PL
14F052395 10:29:00 55 FIGHT 1200 WASHINGTON CENTER RD E
14F052403 10:32:42 50 BURGLARY 1000 LILLIAN AVE
14F052396 10:34:50 TOW 8400 AUBURN RD
14F052397 10:35:44 48,35 6300 COLDWATER RD & I 69 NB
14F052398 10:37:38 27 RECKLESS DRI 1300 CALHOUN ST S & BRACKENRIDGE S
14F052399 10:39:34 46 DOMESTIC 1100 MICHIGAN AVE
14F052401 10:40:36 911 HANG UP 1100 STATE BLVD W
14F052400 10:41:20 1 MEET 100 WAYNE ST W
14F052402 10:47:54 35 PARKED VEHIC 6200 BLACK OAK BLVD & BURLINGTON A
14F052404 10:51:17 29 SPECIAL ASGN 00 MAIN ST E
14F052405 10:57:28 911 HANG UP 2700 STARDALE DR
14F052411 10:59:25 51 THEFT 2500 RIVER PARK DR
14F052406 11:01:25 14 WARRANT 700 MELODY CIR S
14F052407 11:08:08 17 MOTOR CHECK 3000 EUCLID AVE
14F052408 11:11:21 16V PICKUP VID 00 MAIN ST E
14F052410 11:14:31 48,36 200 FLEMING AVE W
14F052413 11:16:38 17 MOTOR CHECK 2800 QUEEN ST
14F052412 11:20:04 911 HANG UP 10200 MONTICELLO BLVD
14F052414 11:20:23 51 THEFT 2900 RADCLIFFE DR
14F052415 11:23:58 911 HANG UP 300 LEXINGTON CT
14F052416 11:25:34 108 FOLLOWUP 3400 TIMBERHILL DR
14F052432 11:28:49 17 MOTOR CHECK 3000 KILLARNEY PL
14F052417 11:29:11 30 TRAFFIC STOP 6100 WINCHESTER RD & AIRPORT EXPRE
14F052418 11:29:27 66 MENTALLY ILL 3300 THURBER AVE
14F052423 11:30:53 44 NUISANCE 2100 EDEN ST & GREENE ST
14F052419 11:35:45 51 THEFT 00 MAIN ST E
14F052420 11:37:15 911 HANG UP 4600 TURBO TRL
14F052421 11:38:58 911 HANG UP 4000 OLIVER ST
14F052422 11:41:35 15 ASSIST 7300 ST JOE RD & ROTHMAN RD
14F052424 11:43:46 30 TRAFFIC STOP 7300 COVINGTON RD & I 69 NB
14F052426 11:44:34 15,85 ASST AT O 4600 JASON DR
14F052425 11:45:51 65A SUICIDE ATT 3900 CLINTON ST N
14F052427 11:50:51 911 HANG UP 300 SUTTENFIELD AVE E & LAFAYETTE
14F052435 11:56:18 47 REMOVE ITEMS 1400 SHERMAN BLVD
14F052428 11:59:52 23 VANDALISM 1000 WASHINGTON BLVD W
14F052431 12:00:03 25HS HIT SKIP 5300 COLDWATER RD
14F052429 12:00:36 30 TRAFFIC STOP 3700 CLINTON ST N & RIDGEWOOD DR
14F052430 12:01:07 25 PD ACCIDENT 600 STATE BLVD W & GOSHEN AVE
14F052434 12:05:00 129 3200 DIPLOMAT DR
14F052436 12:13:18 43 DISTURBANCE 900 STATE BLVD E
14F052437 12:15:43 16V PICKUP VID 00 MAIN ST E
14F052438 12:18:18 15 ASSIST 9200 ABOITE CENTER RD
14F052439 12:22:13 39JO 500 THIRD ST & ORCHARD ST
14F052440 12:23:12 17 MOTOR CHECK 300 PETTIT AVE E
14F052443 12:24:33 17 MOTOR CHECK 1600 FOURTH ST W
14F052441 12:26:15 40A AUDIBLE 1100 KINSMOOR AVE
14F052442 12:29:29 51 THEFT 700 BROADWAY
14F052445 12:31:29 102 THREATS 5900 LUNADA DR
14F052444 12:31:47 103 UNWANTED 3800 LAFAYETTE ST S
14F052446 12:47:30 46 DOMESTIC 300 WILLIAMS ST W
14F052448 12:49:08 25 PD ACCIDENT 1500 ECKART ST
14F052447 12:49:47 129 7500 WYNNEWOOD LN
14F052449 12:50:55 129 7700 GLENOAK PKWY
14F052450 12:51:12 129 3200 COUNTRY PARK LN
14F052452 12:51:23 46 DOMESTIC 100 LEITH ST E
14F052451 12:52:02 22I JUV INVEST 3600 CALHOUN ST S
14F052453 12:53:26 103 UNWANTED 4200 LAFAYETTE ST S
14F052454 12:58:51 33,34 300 OAKDALE DR E
14F052455 12:59:40 103 UNWANTED 700 BUCHANAN ST
14F052456 13:09:54 51JO 6300 LIMA RD
14F052457 13:13:17 1 MEET 100 COLUMBIA ST W
14F052461 13:13:52 17 MOTOR CHECK 700 THIRD ST
14F052459 13:16:10 25 PD ACCIDENT 4600 NEWAYGO RD
14F052458 13:16:48 25 PD ACCIDENT 200 COLISEUM BLVD E
14F052460 13:21:29 15,84 ASS URGEN 500 LEWIS ST E & MONROE ST S
14F052464 13:21:47 99 NARCOTICS 100 WILDWOOD AVE W
14F052462 13:25:19 48,36 1200 GETZ RD & ILLINOIS RD
14F052463 13:26:28 911 HANG UP 2500 LAFAYETTE ST S
14F052467 13:30:36 15 ASSIST 800 RUDISILL BLVD E
14F052465 13:31:57 40A AUDIBLE 2100 CLINTON ST S
14F052466 13:32:53 14S SERVING WAR 2200 HOBSON RD
14F052469 13:37:23 66 MENTALLY ILL 4700 HEATHERWIND DR
14F052468 13:39:06 26 PI ACCIDENT 1300 WELLS ST
14F052470 14:00:09 25 PD ACCIDENT 300 JEFFERSON BLVD E & LAFAYETTE S
14F052471 14:02:43 25HS HIT SKIP 200 JEFFERSON BLVD W & WEBSTER ST
14F052472 14:04:50 30 TRAFFIC STOP 1700 COLISEUM BLVD W & EXECUTIVE B
14F052473 14:05:32 43 DISTURBANCE 1700 APPLE GLEN BLVD
14F052474 14:08:30 30 TRAFFIC STOP 2000 SMITH ST & BUCHANAN ST
14F052481 14:08:31 63 CONTACT 3400 CENTRAL DR
14F052477 14:08:37 61 RAPE 6400 OAKBROOK PKWY
14F052480 14:08:59 63 CONTACT 3300 REED ST
14F052475 14:09:00 129 7700 PREAKNESS CV
14F052476 14:09:19 34 TRAFF HAZARD 31500 I 69 SB
14F052478 14:13:57 11C CAGE CAR 4200 COLDWATER RD
14F052479 14:18:11 51,35 3600 CLINTON ST N
14F052482 14:19:40 911 HANG UP 6400 ST JOE RD
14F052486 14:20:34 911 HANG UP 6400 JEFFERSON BLVD W
14F052484 14:21:06 41 MAN DOWN 1100 CALHOUN ST S
14F052483 14:21:31 129 900 CARIBE BLVD
14F052485 14:22:58 33,34 5400 GOSHEN RD
14F052487 14:24:59 1 MEET 3400 SHERMAN BLVD
14F052491 14:30:16 64 NOT SEEN 3800 YARDLEY CT
14F052500 14:30:32 18 WORK TRAFFIC 1400 MAIN ST W & OSAGE ST
14F052488 14:31:47 30 TRAFFIC STOP 2400 BOWSER AVE
14F052521 14:31:52 18 WORK TRAFFIC 6700 TRIER RD & FERNBANK DR
14F052489 14:32:41 65A SUICIDE ATT 3500 OLIVER ST
14F052492 14:33:05 48 SUSPICIOUS 2900 GOSHEN RD & COLISEUM BLVD W
14F052490 14:34:18 30 TRAFFIC STOP 300 SUPERIOR ST W
14F052493 14:35:22 25 PD ACCIDENT 500 WALLACE ST E
14F052499 14:35:35 25HS HIT SKIP 31100 I 69 SB
14F052496 14:36:48 25HS HIT SKIP 2900 CLINTON ST N
14F052497 14:37:04 43 DISTURBANCE 2000 RIEDMILLER AVE
14F052495 14:37:13 43 DISTURBANCE 1400 MEDICAL PARK DR
14F052498 14:37:27 43 DISTURBANCE 1700 STATE BLVD E & ANTHONY BLVD N
14F052494 14:37:34 1 MEET 4200 FAIRFIELD AVE & MAXINE DR
14F052502 14:40:53 102,TX THREATS 1500 ROOSEVELT DR
14F052501 14:43:01 911 HANG UP 4100 REED ST
14F052503 14:44:42 103 UNWANTED 2400 BROADWAY
14F052504 14:46:08 43 DISTURBANCE 700 PONTIAC ST E
14F052505 14:48:27 35 PARKED VEHIC 2000 THOMPSON AVE
14F052507 14:50:37 911 HANG UP 2900 HOEVELWOOD DR
14F052506 14:50:44 48 SUSPICIOUS 200 COLISEUM BLVD E
14F052508 14:52:51 99 NARCOTICS 4900 VANCE AVE
14F052509 14:53:05 16,97 3800 OAKHURST DR
14F052510 14:55:37 65T SUICIDE THR 600 TENNESSEE AVE
14F052512 14:57:21 40A AUDIBLE 6000 AURORA PL
14F052511 14:59:04 51 THEFT 900 LIBRARY PLAZA
14F052514 15:03:03 26 PI ACCIDENT 5700 FAIRFIELD AVE & PAULDING RD W
14F052513 15:03:23 51 THEFT 1700 MAYFLOWER RD
14F052516 15:04:48 50IP BURG I/P 800 WALNUT ST
14F052515 15:04:55 48 SUSPICIOUS 4300 LIMA RD & COLISEUM BLVD W
14F052519 15:05:20 17 MOTOR CHECK 1800 FOX POINT TRL
14F052517 15:06:42 129 2900 ELMDALE DR
14F052518 15:06:47 43 DISTURBANCE 3500 RAYMOND AVE
14F052531 15:08:02 22RN RUNAWAY 2900 CENTRAL DR
14F052520 15:11:45 103 UNWANTED 2800 STATE BLVD E
14F052550 15:12:22 17 MOTOR CHECK 2200 BROADWAY
14F052524 15:12:33 103 UNWANTED 2700 CLINTON ST S
14F052522 15:13:20 25 PD ACCIDENT 30900 I 69 NB
14F052523 15:15:49 23,35 VAND VEH 2300 FLORIDA DR
14F052525 15:17:12 911 HANG UP 1400 CALHOUN ST S
14F052527 15:21:04 53 ARMED ROB 5100 COLDWATER RD
14F052528 15:22:34 55 FIGHT 900 WEBSTER ST & WAYNE ST W
14F052530 15:23:12 43 DISTURBANCE 500 CHARLOTTE AVE
14F052529 15:24:06 51 THEFT 1600 DIRECTORS ROW
14F052533 15:30:23 911 HANG UP 600 ELMER AVE
14F052532 15:32:35 26 PI ACCIDENT 7800 MAYSVILLE RD
14F052535 15:35:21 46 DOMESTIC 1300 LYNN AVE
14F052534 15:36:40 17 MOTOR CHECK 1800 SEDDLEMEYER AVE
14F052536 15:40:02 50 BURGLARY 5300 BOWSER AVE
14F052537 15:46:13 46,96 400 KINNAIRD AVE & FAIRFIELD AVE
14F052538 15:51:51 51JO 1700 APPLE GLEN BLVD
14F052551 15:58:52 17 MOTOR CHECK 7000 WOODCROFT LN
14F052540 15:59:47 63 CONTACT 5400 WEBSTER ST
14F052539 16:00:44 50,ATTEMPTED 1400 SHERMAN BLVD
14F052542 16:01:55 911 HANG UP 7100 BLUFFTON RD
14F052545 16:02:42 63 CONTACT 200 LAWSHE DR
14F052541 16:04:48 911 HANG UP 3900 WENONAH LN
14F052543 16:07:10 16V PICKUP VID 00 MAIN ST E
14F052547 16:10:13 911 HANG UP 12100 BURNING TREE RD
14F052544 16:10:55 65T SUICIDE THR 7000 RED HAW DR
14F052553 16:10:55 17 MOTOR CHECK 5800 WINTER ST
14F052546 16:12:33 51IP 4100 ANTHONY BLVD S
14F052554 16:13:08 17 MOTOR CHECK 2300 OLIVER ST
14F052548 16:15:26 911 HANG UP 3300 FELICIAN ST
14F052549 16:16:05 43 DISTURBANCE 600 HUFFMAN ST
14F052552 16:16:16 911 HANG UP 7000 SALGE CT
14F052555 16:19:57 40A AUDIBLE 4300 WHALERS CV
14F052556 16:25:50 911 HANG UP 1600 KELLY DR
14F052557 16:29:24 66 MENTALLY ILL 900 STATE BLVD E
14F052558 16:31:29 38 LOST/STOLEN 2500 CALHOUN ST S
14F052559 16:35:00 41 MAN DOWN 2700 CALHOUN ST S & LEITH ST E
14F052562 16:39:53 96JO 1300 GRANT AVE
14F052563 16:41:51 48 SUSPICIOUS 6800 TRALEE CT
14F052560 16:41:57 129 7300 BLUFFTON RD
14F052561 16:42:12 129 9200 WHITESTONE CT
14F052564 16:44:23 51IP 1100 STATE BLVD W
14F052574 16:48:39 22I JUV INVEST 2800 BOSWORTH DR
14F052565 16:49:03 129 1500 BUCKSKIN DR
14F052566 16:49:16 129 6900 BITTERSWEET DELLS CT
14F052568 16:50:23 911 HANG UP 400 FLEMING AVE W
14F052567 16:52:49 43 DISTURBANCE 3600 PARNELL AVE
14F052573 16:55:16 48,35 1900 HAZELWOOD AVE
14F052569 16:55:19 30 TRAFFIC STOP 200 WASHINGTON BLVD W & WEBSTER ST
14F052570 16:56:26 51 THEFT 1600 TYLER AVE
14F052571 16:56:50 26 PI ACCIDENT 2700 TILLMAN RD E & LEMAR DR
14F052572 16:56:54 48,35 5900 COLDWATER RD & I 69 312 NB ON
14F052575 16:57:35 47 REMOVE ITEMS 1100 SWINNEY AVE
14F052577 17:07:36 43 DISTURBANCE 7900 DECATUR RD
14F052576 17:08:34 99 NARCOTICS 00 MAIN ST E
14F052578 17:13:55 80 CIVIL INVEST 3600 INWOOD DR
14F052579 17:18:05 16V PICKUP VID 00 MAIN ST E
14F052580 17:18:32 129 400 WILLIAMS ST W
14F052583 17:18:52 911 HANG UP 3400 ADIRONDACK DR
14F052581 17:19:21 46 DOMESTIC 3600 INWOOD DR
14F052582 17:19:51 96JO 3800 CALHOUN ST S & RUDISILL BLVD
14F052587 17:24:37 911 HANG UP 3000 CENTRAL DR
14F052584 17:25:09 43 DISTURBANCE 2800 WEISSER PARK AVE & MCKEE ST
14F052585 17:25:50 40P PANIC ALARM 8100 ST JOE CENTER RD
14F052586 17:26:47 48 SUSPICIOUS 1900 PINE ST & TAYLOR ST
14F052588 17:30:13 38 LOST/STOLEN 5900 ILLINOIS RD
14F052595 17:31:04 56 MOLESTING 800 MCKINNIE AVE
14F052592 17:32:05 911 HANG UP 4100 BOWSER AVE
14F052590 17:33:09 18 WORK TRAFFIC 9000 ABOITE CENTER RD & WINTERFIEL
14F052589 17:34:55 62 PARTY ARMED 2700 PENNSYLVANIA ST & ROY ST
14F052591 17:35:57 46 DOMESTIC 3000 CENTRAL DR
14F052593 17:38:21 51 THEFT 5400 CALHOUN ST S
14F052594 17:38:47 34 TRAFF HAZARD 31600 I 69 NB
14F052597 17:45:55 102,TX THREATS 1700 MILAN ST
14F052598 17:49:50 17 MOTOR CHECK 400 HARRISON ST S & SUPERIOR ST W
14F052596 17:49:54 1 MEET 4300 ANTHONY BLVD S
14F052599 17:55:48 46 DOMESTIC 600 HUFFMAN ST
14F052608 17:56:21 66 MENTALLY ILL 1900 THIRD ST
14F052600 18:00:47 129 7400 ANTEBELLUM BLVD
14F052601 18:01:02 129 7400 TIPPERARY TRL
14F052602 18:02:14 30 TRAFFIC STOP 3800 OLIVER ST & RUDISILL BLVD E
14F052603 18:03:03 51 THEFT 5200 PIN TAIL PL
14F052604 18:04:50 25HS HIT SKIP 2400 ANTHONY BLVD N
14F052612 18:05:37 43 DISTURBANCE 500 HUFFMAN ST
14F052605 18:08:34 30 TRAFFIC STOP 3600 CRESCENT AVE & KIRKWOOD DR
14F052606 18:09:44 30 TRAFFIC STOP 3400 DUPONT RD E & DUPONT PLAZA EN
14F052607 18:09:55 48 SUSPICIOUS 1900 BROADWAY & TAYLOR ST
14F052609 18:14:21 11C CAGE CAR 7500 SOUTHTOWN XING
14F052611 18:17:03 47 REMOVE ITEMS 5500 ALLENDALE DR
14F052610 18:17:35 99 NARCOTICS 00 MAIN ST E
14F052613 18:24:44 911 HANG UP 2200 COVINGTON RD
14F052614 18:30:40 96 BATTERY 00 MAIN ST E
14F052615 18:30:57 EMS 3800 OAKPARK DR
14F052616 18:36:38 40A AUDIBLE 400 LEY RD
14F052618 18:36:56 911 HANG UP 1900 ROY ST
14F052617 18:37:36 129 6000 BECKER DR
14F052619 18:38:19 129 5900 ST JOE RD
14F052620 18:39:40 40A AUDIBLE 2300 EBY AVE
14F052621 18:49:43 911 HANG UP 1900 HOBSON RD
14F052622 18:53:08 911 HANG UP 1900 HOBSON RD
14F052623 18:53:45 911 HANG UP 800 VENTURA LN
14F052625 18:55:12 43 DISTURBANCE 3300 BROADWAY
14F052624 18:56:47 15 ASSIST 500 MAIN ST W
14F052626 18:58:54 22I JUV INVEST 7300 ST JOE RD & ROTHMAN RD
14F052628 18:59:39 40A AUDIBLE 1200 WOODLAND XING
14F052627 19:00:30 66 MENTALLY ILL 4700 HEATHERWIND DR
14F052629 19:05:07 48,35 900 FULTON ST & WASHINGTON BLVD W
14F052631 19:11:21 63 CONTACT 2900 GOSHEN RD & COLISEUM BLVD W
14F052630 19:17:27 48 SUSPICIOUS 4800 BLUM DR
14F052632 19:25:09 43 DISTURBANCE 700 BROADWAY
14F052633 19:25:15 40A AUDIBLE 800 DUPONT RD E
14F052634 19:28:19 43 DISTURBANCE 2400 FAIRFIELD AVE
14F052635 19:31:49 911 HANG UP 4000 MOUND PASS
14F052637 19:32:08 17 MOTOR CHECK 2700 WASHINGTON CENTER RD W
14F052636 19:33:37 129 3900 MCKINNIE AVE
14F052638 19:36:31 37 PARKING VIOL 500 HUFFMAN ST
14F052639 19:37:46 43,62 3700 DAVEWAY DR
14F052640 19:42:41 911 HANG UP 5000 ASHLAND DR
14F052642 19:43:18 1 MEET 2700 WASHINGTON CENTER RD W
14F052641 19:52:20 43 DISTURBANCE 700 BROADWAY
14F052647 19:52:50 26 PI ACCIDENT 10600 MAYSVILLE RD & I 469 25 SB O
14F052644 19:56:06 102,TX THREATS 3400 CHEVIOT DR
14F052643 19:56:52 18 WORK TRAFFIC 2900 GOSHEN RD & COLISEUM BLVD W
14F052645 20:01:47 50 BURGLARY 6200 LANDSDOWNE DR
14F052646 20:02:27 51 THEFT 1700 TECUMSEH ST
14F052649 20:04:13 63 CONTACT 5100 WEBSTER ST
14F052648 20:08:34 911 HANG UP 4300 AVONDALE DR
14F052653 20:16:22 46 DOMESTIC 2600 SUGAR TREE DR
14F052650 20:17:03 911 HANG UP 5200 HAMPSTEAD LN
14F052651 20:18:19 103 UNWANTED 10500 MAYSVILLE RD
14F052652 20:19:16 46,96 700 COTTAGE AVE
14F052657 20:22:54 45 NEIGHBORHOOD 700 ANDERSON AVE
14F052654 20:26:56 96 BATTERY 700 BROADWAY
14F052655 20:29:24 46 DOMESTIC 4900 HATFIELD RD
14F052656 20:31:48 911 HANG UP 2700 PAULDING RD E
14F052659 20:32:00 48 SUSPICIOUS 5700 ULLYOT DR
14F052658 20:32:55 111D DOG 200 LEITH ST W
14F052667 20:34:39 56 MOLESTING 00 MAIN ST E
14F052663 20:39:31 24 MISSING PERS 2400 STATE BLVD E
14F052660 20:44:44 911 HANG UP 2200 HOLTON AVE
14F052674 20:46:20 14 WARRANT 300 FLEMING AVE W
14F052662 20:49:25 46 DOMESTIC 3800 NORTH CREEK DR
14F052661 20:50:44 48,36 900 OAKLAWN CT
14F052664 20:51:12 911 HANG UP 3900 CLINTON ST N
14F052665 21:01:09 40 ALARM 6500 MUTUAL DR
14F052666 21:03:51 911 HANG UP 900 OAKLAWN CT
14F052668 21:10:23 911 HANG UP 2700 MILLBROOK DR
14F052669 21:11:23 129 6700 COVINGTON CREEK TRL
14F052670 21:25:08 129 2500 OAKWOOD DR
14F052671 21:25:20 46 DOMESTIC 2800 DREXEL AVE
14F052672 21:25:48 43 DISTURBANCE 3400 ST CROIX DR
14F052673 21:28:23 15 ASSIST 1900 CHEROKEE RD
14F052675 21:31:17 129 6900 ORDWAY DR
14F052676 21:36:44 911 HANG UP 12600 CHAPELWOOD PL
14F052678 21:40:55 43 DISTURBANCE 1300 GREENE ST
14F052677 21:41:03 33,34 900 CLINTON ST S & WASHINGTON BLVD
14F052683 21:41:37 63 CONTACT 1700 WELLS ST
14F052679 21:46:57 33,34 3100 LAFAYETTE ST S & ECKART ST
14F052680 21:53:44 HARASSMENT 3200 FAIRFIELD AVE
14F052681 21:57:05 33,34 600 WALLACE ST E & HANNA ST S
14F052682 22:03:18 30 TRAFFIC STOP 4300 MCMILLEN PARK DR & MCKINNIE A
14F052684 22:15:04 16V PICKUP VID 00 MAIN ST E
14F052685 22:16:28 129 7100 TANBARK LN
14F052686 22:16:51 129 9500 GREYHAWK DR
14F052687 22:18:11 30 TRAFFIC STOP 1500 WASHINGTON CENTER RD W & LIMA
14F052688 22:21:43 129 1100 PACKARD AVE W
14F052689 22:21:45 57 STRONG ARM 3000 MCARTHUR DR
14F052690 22:23:04 129 1200 PACKARD AVE W
14F052691 22:23:57 55,62 3100 WELLS ST
14F052692 22:27:24 48,36 8200 BRIDGEWAY DR
14F052693 22:28:30 43 DISTURBANCE 300 DEWALD ST E
14F052694 22:28:52 43 DISTURBANCE 900 CRESCENT AVE
14F052695 22:32:35 46,96 800 BERRY ST E
14F052696 22:39:07 30 TRAFFIC STOP 1000 STATE BLVD W & ST MARYS AVE
14F052697 22:40:16 30 TRAFFIC STOP 2800 MAIN ST W & JEFFERSON BLVD W
14F052698 22:40:34 30 TRAFFIC STOP 3100 PAULDING RD E & HESSEN CASSEL
14F052699 22:42:14 43 DISTURBANCE 2100 EDEN ST
14F052701 22:44:17 96IP 2800 DREXEL AVE
14F052700 22:45:30 30 TRAFFIC STOP 3700 CLINTON ST N & COLDWATER RD
14F052705 22:46:36 51 THEFT 1700 HOWELL ST
14F052703 22:47:03 EMS 5200 FOREST GROVE DR
14F052702 22:50:14 129 6300 LANGWOOD BLVD
14F052704 22:55:02 48,36 600 TILLMAN RD E & HANNA ST S
14F052706 22:57:41 30 TRAFFIC STOP 300 WILLIAMS ST W & HOAGLAND AVE
14F052707 23:00:22 30 TRAFFIC STOP 6000 HESSEN CASSEL RD
14F052708 23:04:03 102 THREATS 3700 OLIVER ST
14F052709 23:04:20 911 HANG UP 9800 COLDWATER RD
14F052710 23:07:08 43 DISTURBANCE 1200 JEFFERSON BLVD W
14F052711 23:08:59 33,34 2100 PONTIAC ST E & ALEXANDER ST
14F052712 23:09:39 66 MENTALLY ILL 3400 ST CROIX DR
14F052713 23:12:14 46,96 2900 TRENTMAN AVE
14F052715 23:12:32 911 HANG UP 4100 BARTON LN
14F052714 23:14:27 25 PD ACCIDENT 5300 COLDWATER RD
14F052716 23:18:07 30 TRAFFIC STOP 1400 CLINTON ST N & FOURTH ST E
14F052719 23:19:25 911 HANG UP 1800 FOX POINT TRL
14F052717 23:19:35 30 TRAFFIC STOP 5800 TURTLE CREEK DR & PAULDING RD
14F052718 23:21:34 30 TRAFFIC STOP 1000 HIGH ST & ST MARYS AVE
14F052720 23:22:11 33,34 30100 I 69 SB
14F052723 23:22:45 34 TRAFF HAZARD 31100 I 69 NB
14F052721 23:23:06 44 NUISANCE 800 GOSHEN AVE
14F052722 23:29:34 113 SHOTS FIRED 1700 CRESCENT AVE
14F052725 23:33:27 44LM 4900 ROTHMAN RD
14F052724 23:34:51 129 7300 ROSE ANN PKWY
14F052729 23:35:31 50 BURGLARY 900 WASHINGTON BLVD E
14F052726 23:36:31 30 TRAFFIC STOP 30400 I 69 NB
14F052728 23:37:25 43 DISTURBANCE 4400 WINDING WAY DR
14F052727 23:37:27 30 TRAFFIC STOP 3100 TILLMAN RD E & HESSEN CASSEL
14F052730 23:43:00 22RN RUNAWAY 3000 EUCLID AVE
14F052731 23:47:14 30 TRAFFIC STOP 7100 GETTYSBURG WAY & HADLEY RD N
14F052732 23:47:35 63 CONTACT 2900 MAUMEE AVE & WASHINGTON BLVD
14F052733 23:47:51 48 SUSPICIOUS 3300 COLISEUM BLVD E
14F052736 23:53:54 96 BATTERY 2200 RANDALLIA DR
14F052734 23:54:25 30 TRAFFIC STOP 8200 JEFFERSON BLVD W & I 69 NB
14F052735 23:55:59 30 TRAFFIC STOP 300 LEXINGTON CT & CLINTON ST S
Amber Alert

All-America City